Regional Weather Roundup
Issued by NWS Little Rock, AR

Home | Current Version | Previous Version | Text Only | Print | Product List | Glossary Off
Versions: 1 2 3 4 5 6 7 8 9 10 11 12 13 14 15 16 17 18 19 20 21 22 23 24 25 26 27 28 29 30 31 32 33 34 35 36 37 38 39 40 41 42 43 44 45 46 47 48 49 50

000
ASUS44 KLZK 290705
RWRLZK

WEATHER ROUNDUP FOR ARKANSAS
NATIONAL WEATHER SERVICE LITTLE ROCK AR
200 AM CDT FRI AUG 29 2014

NOTE: "FAIR" INDICATES FEW OR NO CLOUDS BELOW 12,000 FEET WITH NO
SIGNIFICANT WEATHER AND/OR OBSTRUCTIONS TO VISIBILITY.

ARZ001-003-010-029-290800-
NORTHWEST ARKANSAS

CITY           SKY/WX    TMP DP  RH WIND       PRES   REMARKS
FAYETTEVILLE   CLEAR     67  65  93 CALM      29.95F
FORT SMITH     CLEAR     76  69  79 NE6       29.90F
HARRISON       CLEAR     73  65  75 S7        29.98F
BENTONVILLE    CLEAR     72  64  78 SE3       29.96F
ROGERS         CLEAR     73  64  73 E5        29.96F
SILOAM SPGS    CLEAR     72  61  68 SE5       29.95F
HIGHFILL       CLEAR     73  64  73 CALM      29.94F
$$

ARZ004-005-016-290800-
NORTH CENTRAL ARKANSAS

CITY           SKY/WX    TMP DP  RH WIND       PRES   REMARKS
BATESVILLE     CLEAR     70  64  83 CALM      29.96F
FLIPPIN        CLEAR     72  59  64 CALM      29.96F
MTN HOME       CLEAR     71  61  70 SE3       29.96F
$$

ARZ040-041-290800-
WEST CENTRAL ARKANSAS

CITY           SKY/WX    TMP DP  RH WIND       PRES   REMARKS
MENA           CLEAR     73  70  88 CALM      29.96F
MOUNT IDA      CLOUDY    74  71  91 CALM      29.93F
$$

ARZ009-017-025-026-028-290800-
NORTHEAST ARKANSAS

CITY           SKY/WX    TMP DP  RH WIND       PRES   REMARKS
CORNING          N/A     75  75 100 E5        29.96F FOG
JONESBORO      MOCLDY    75  71  87 CALM      29.96F
NEWPORT        PTCLDY    76  71  84 CALM      29.96F
WALNUT RIDGE   CLEAR     73  66  78 CALM      29.95F
BLYTHEVILLE    PTCLDY    74  72  93 SW3       29.96F
$$

ARZ022-023-033-042-044-290800-
CENTRAL ARKANSAS

CITY           SKY/WX    TMP DP  RH WIND       PRES   REMARKS
LITTLE ROCK    PTCLDY    75  66  73 CALM      29.94F
N LITTLE ROCK    N/A     77  68  73 S5        29.94F
JACKSONVILLE   CLEAR     69  67  92 NE1       29.94F
SEARCY         CLEAR     69  67  93 CALM      29.95F
HOT SPRINGS      N/A    N/A N/A N/A MISG        N/A
RUSSELLVILLE   CLEAR     73  68  84 CALM      29.94F
CLINTON        FAIR      70  66  88 CALM      29.96F
$$

ARZ036-290800-
EAST ARKANSAS

CITY           SKY/WX    TMP DP  RH WIND       PRES   REMARKS
WEST MEMPHIS   PTCLDY    74  72  93 CALM      29.95F
$$

ARZ050-053-066-070-073-290800-
SOUTHWEST ARKANSAS

CITY           SKY/WX    TMP DP  RH WIND       PRES   REMARKS
ARKADELPHIA    FAIR      76  75  96 CALM      29.95S
CAMDEN         PTCLDY    75  70  83 SW5       29.94F
TEXARKANA      PTCLDY    74  73  97 SE5       29.93F
EL DORADO      CLOUDY    74  72  93 CALM      29.95F
DE QUEEN       PTCLDY    77  72  84 E3        29.91F
$$

ARZ056-057-069-290800-
SOUTHEAST ARKANSAS

CITY           SKY/WX    TMP DP  RH WIND       PRES   REMARKS
PINE BLUFF     PTCLDY    70  67  90 CALM      29.94F
STUTTGART      CLEAR     75  66  73 SE6       29.95F
MONTICELLO     CLOUDY    73  70  90 CALM      29.95F

$$




USA.gov is the U.S. government's official web portal to all federal, state and local government web resources and services.